Location: Agadir Irigdalene
(31.2522°N, 8.7797°W)
Time: 15:02:24
(UTC+00:00)

NOSS 3-2 (A) - Pass Details

Date: 01 December 2020
Orbit: 789 x 1419 km, 63.4° (Epoch: 22 January)

Event Time Altitude Azimuth Distance (km) Brightness Sun altitude
Rises 18:27:32 0° 209° (SSW) 3,273 7.1 -11.8°
Reaches altitude 10° 18:29:52 10° 209° (SSW) 2,366 6.3 -12.3°
Maximum altitude 18:35:15 86° 298° (WNW) 851 3.2 -13.4°
Drops below altitude 10° 18:41:16 10° 29° (NNE) 2,629 5.3 -14.6°
Enters shadow 18:41:26 - 29° (NNE) 2,693 5.4 -14.6°
